CAPE
1445 1678 2232 2486 2457 2318 2253 2113 2093 1657 1586 1643 1730 1632 1658 1391 1265 1508 1596 1488 1422 1384 1441 1414 1407 1362 1427 1435 1444 1437 1344 1239 1236 1233 1172 1165 1163 1093 756 752 689 622 644 706 772 736 637 558 628 1078 1012 831 911 1038 1042 959 857 789 730 656 543 550 870 810 746 794 758 852 831 806 531 451 504 481 410 350 385 414 396 311 207 203 309 371 330
1430 1849 2264 2536 2362 2330 2269 2213 1993 1832 1535 1670 1730 1666 1690 1602 1569 1323 1662 1636 1557 1632 1609 1499 1327 1414 1501 1512 1508 1492 1501 1512 1485 1398 1356 1211 939 731 795 831 725 668 572 577 606 645 662 621 566 612 690 853 934 871 806 796 744 712 607 571 520 493 659 783 712 706 692 692 689 655 571 581 514 408 361 322 276 337 149 68 112 38 90 145 203
1680 1994 2222 2570 2505 2396 2353 2223 1737 1919 1640 1756 1780 1790 1798 1814 1615 1712 1639 1634 1537 1412 1316 1483 1529 1389 1474 1557 1582 1591 1555 1508 1544 1536 1369 1272 1265 1170 982 805 617 584 605 675 634 626 688 652 638 660 688 694 697 686 718 785 737 788 790 788 733 670 593 544 571 569 586 575 499 470 425 371 390 429 362 339 197 174 251 159 4 1 7 45 60
1658 2058 2271 2218 2318 2398 2028 2250 2191 2030 1798 1743 1806 1842 1882 1886 1862 1818 1834 1797 1638 1628 1716 1630 1628 1558 1497 1390 1354 1383 1504 1552 1518 1515 1439 1342 1240 1166 957 829 753 946 1065 986 744 508 395 480 555 654 742 785 660 732 650 741 738 759 791 756 712 693 671 755 802 713 631 611 618 483 546 323 356 344 334 319 317 254 278 220 179 186 98 26 99
1756 2049 2132 1990 2085 2294 2273 2230 2069 1828 1947 1885 1856 1859 1856 1927 1992 2076 2089 2045 2021 1990 1886 1733 1643 1661 1640 1574 1592 1538 1566 1559 1433 1338 1345 1396 1378 1347 1304 1364 1166 1141 1054 858 784 844 809 712 744 784 803 753 719 748 744 686 772 735 765 738 752 729 717 696 619 558 516 596 501 191 10 159 223 320 364 278 248 250 268 269 226 245 283 278 296
1864 2050 2135 2093 2147 2191 2217 2177 2014 1942 1884 1997 1757 1804 1881 2009 2043 2119 2103 2109 2121 2076 2035 1965 1915 1761 1718 1717 1636 1614 1545 1432 1386 1425 1508 1491 1570 1488 1246 1159 1197 1042 940 871 916 794 771 851 842 785 855 809 892 855 864 838 753 787 735 750 746 755 705 621 559 550 590 499 358 23 19 149 290 374 310 168 102 67 116 7 95 115 117 99 123
1925 2088 2084 2014 1971 2026 2156 2112 1908 1873 1953 1873 1954 1843 1884 1982 2088 2004 2121 2008 2048 2068 1929 1822 1890 1880 1838 1751 1630 1701 1643 1527 1578 1630 1645 1551 1436 1546 1439 1339 1244 1247 1024 991 916 864 884 810 750 660 634 720 810 1005 951 1004 801 670 636 663 779 806 710 676 557 488 381 39 0 0 0 415 613 631 484 368 207 142 156 390 313 251 208 158 134
1842 1918 1913 1825 1889 2021 2144 2181 1959 1899 1905 2047 1948 1894 2083 2133 2078 2157 1959 1950 1941 1980 2046 2039 1890 1888 1918 1934 1787 1805 1762 1724 1682 1769 1768 1744 1630 1467 1255 1345 1214 1088 1086 968 915 941 817 812 867 804 767 820 1053 1129 1146 1183 1146 757 614 794 996 1079 1004 469 446 401 297 6 0 0 34 405 439 424 584 544 463 152 127 178 130 62 38 38 88
1683 1694 1770 1761 1836 2172 2251 2202 2092 1994 2104 2090 2002 2031 2113 2165 2083 2005 2028 2012 2030 1908 1875 1962 1950 1988 2013 2105 2120 2103 2064 1949 1881 1851 1897 1772 1609 1494 1429 1368 1249 1192 1087 1024 995 981 997 1024 1028 1043 1147 1282 1272 1217 1396 1251 1211 1134 1140 1122 1100 1105 1135 1089 1075 622 261 74 8 1 284 108 297 311 469 501 412 404 329 208 64 130 97 21 100
1543 1620 1719 1783 1880 2225 2162 2180 2238 2159 2095 2062 2052 2049 2057 2191 2123 2065 2152 2081 1992 1910 1734 1810 1953 2012 2008 2077 2182 2154 2039 1967 1954 1899 1924 1723 1636 1579 1465 1447 1148 1070 1083 1126 1161 1252 1242 1224 1168 866 1182 1174 1169 1145 1133 1236 1284 1227 1125 1038 1045 965 959 890 1153 967 124 58 17 44 672 558 233 236 323 208 180 12 34 77 151 38 76 158 100
1483 1608 1726 1837 2032 2100 2070 2185 2359 2213 2130 2151 2154 2137 2085 2188 2216 2163 2117 2018 2078 2054 2003 1963 1811 1949 2014 1997 2016 1947 1865 1737 1731 1796 1706 1652 1582 1508 1225 1246 1269 1530 1282 1347 1311 1340 1261 1162 1232 1459 1520 1479 1272 1211 1267 1303 1229 1209 1144 953 899 1014 1047 1098 954 502 138 89 158 544 900 709 288 344 525 394 333 380 316 128 184 413 342 180 98
1511 1667 1806 1944 2252 1979 2138 2236 2307 2330 2240 2193 2158 2149 2252 2226 2289 2166 2101 2032 2125 2034 2024 1813 1936 1881 1875 1784 1740 1654 1697 1675 1727 1688 1701 1576 1447 1442 1272 1313 1331 1284 1266 1335 1348 1357 1443 1536 1548 1519 1549 1504 1460 1360 1248 1144 1096 1089 986 784 800 927 896 857 535 494 213 178 355 450 509 500 496 546 482 377 306 180 127 250 304 181 156 178 246
1622 1789 1862 1817 1890 1998 1961 2165 2318 2297 2267 2233 2180 2161 2218 2308 2199 2082 2134 2166 2146 2055 1981 1907 1956 1919 1733 1728 1774 1735 1777 1762 1738 1694 1632 1606 1527 1437 1588 1465 1360 1289 1364 1437 1556 1607 1617 1540 1462 1378 1337 1357 1362 1300 1246 1119 936 807 855 892 1052 941 712 796 502 494 266 278 389 467 535 517 552 643 468 336 484 420 293 225 330 224 142 90 130
1769 1848 1884 1902 1924 1907 2157 2114 2222 2358 2294 2349 2302 2314 2361 2439 2428 2262 2218 2194 2149 2049 2020 1939 1919 1928 1777 1765 1780 1963 1994 1884 1801 1724 1600 1491 1527 1711 1765 1789 1570 1457 1565 1778 1779 1650 1536 1420 1352 1210 1144 1106 1066 1103 946 948 907 989 1131 1159 1259 806 650 642 560 509 337 290 337 441 528 529 535 503 463 418 315 325 274 180 158 130 147 108 132
1753 1814 1871 1894 1825 1982 2177 2048 2094 2347 2348 2330 2350 2530 2615 2563 2450 2324 2304 2208 2170 2031 1863 1709 1817 1815 1954 2042 2072 2078 2042 1939 1828 1750 1618 1638 1620 1710 1730 1818 1842 1848 1751 1664 1739 1644 1483 1316 1201 1133 954 806 800 862 928 1050 1077 1167 1260 1332 1509 805 623 696 637 520 338 251 362 399 475 458 979 850 563 465 386 216 226 280 172 113 235 263 216
1578 1754 1821 1800 1809 2059 2178 2209 2170 2347 2313 2386 2509 2655 2655 2576 2489 2458 2357 2255 2169 2067 1933 2097 2122 2139 2175 2190 2191 2150 2037 1970 1932 1816 1758 1663 1656 1616 1686 1794 1759 1767 1721 1690 1728 1557 1390 1233 1127 1010 860 777 708 781 1040 1122 1160 1293 1376 1408 1592 947 594 707 642 506 323 262 307 354 374 528 743 697 587 528 450 330 226 162 334 262 104 79 84
1448 1542 1568 1581 1800 1859 1887 2090 2198 2360 2454 2483 2586 2637 2570 2506 2572 2598 2426 2225 2239 2241 2197 2138 2152 2235 2236 2253 2228 2177 2116 2047 2002 1892 1763 1672 1649 1643 1532 1554 1523 1707 1810 1774 1643 1494 1354 1202 1050 980 892 767 757 796 915 1138 1327 1476 1556 1529 1437 1376 649 657 582 420 323 284 312 349 403 536 718 838 666 526 396 314 204 98 243 140 62 146 187
1327 1245 1258 1529 1710 1853 2002 2066 2179 2098 2083 2119 2593 2522 2445 2506 2515 2630 2493 2416 2368 2305 2267 2290 2269 2293 2236 2186 2209 2156 2084 2072 1998 1918 1808 1695 1870 1700 1618 1558 1718 1848 1813 1735 1690 1619 1408 1184 1073 1003 885 858 710 742 816 1106 1257 1395 1366 1176 1274 1321 854 599 560 416 347 548 310 392 400 578 946 883 634 577 458 335 250 203 196 147 174 118 144
1073 1122 1361 1579 1762 1878 1925 1856 1999 2086 2107 2208 2406 2612 2677 2531 2613 2617 2576 2521 2472 2402 2409 2353 2350 2330 2302 2214 2140 2122 2070 2062 2042 1921 1830 1754 1712 1891 1740 1605 1678 1853 1829 1813 1807 1678 1353 1198 1093 1066 913 789 840 812 957 960 1158 1159 993 1116 1332 1302 971 581 510 437 444 308 304 324 412 604 873 748 686 579 426 368 292 183 143 136 192 191 132
1010 1211 1447 1759 1842 1864 1850 1881 2005 2083 2094 2244 2280 2431 2641 2640 2688 2550 2577 2561 2558 2560 2459 2384 2347 2251 2259 2272 2287 2166 2073 2029 2005 1964 1928 1866 1870 1692 1671 1615 1712 1810 1832 1815 1798 1564 1281 1200 1225 1085 875 856 914 898 724 786 1077 1061 737 965 1226 1168 527 574 548 445 392 350 371 320 426 856 876 724 684 600 503 399 292 188 94 156 154 148 138
1035 1252 1654 1888 1908 1905 1888 1944 2058 2096 2141 2216 2303 2328 2498 2651 2432 2602 2653 2617 2592 2494 2437 2424 2213 2230 2091 2255 2051 1980 2008 1905 1836 1802 1871 1872 1826 1776 1632 1682 1802 1786 1870 1744 1693 1545 1274 1288 1277 1166 955 902 988 727 642 691 901 809 437 688 610 476 522 570 558 462 405 576 594 331 550 952 745 752 679 600 503 368 247 167 121 140 166 232 318
1134 1419 1773 1876 1867 1887 1874 1929 2029 2111 2167 2184 2271 2288 2348 2376 2400 2381 2457 2339 2490 2379 2172 2193 2070 2101 2139 1927 1904 1917 1897 1907 1804 1760 1833 2002 1799 1706 1646 1555 1655 1826 1802 1740 1754 1602 1538 1404 1308 1309 1031 1061 542 215 19 243 551 477 460 422 580 546 513 550 543 479 418 475 464 335 756 862 826 740 721 624 510 330 248 176 133 193 231 336 234
1056 1434 1657 1805 1828 1844 1854 1901 2015 2091 2155 2160 2175 2243 2339 2400 2479 2486 2353 2376 2336 2301 2181 2059 2045 1957 1868 1881 1852 1802 1786 1699 1785 1860 1831 1922 1882 1438 1353 1394 1204 1544 1664 1746 1729 1679 1648 1648 1531 1422 1235 776 458 380 304 0 94 414 454 402 584 588 519 527 530 506 445 430 396 492 914 888 863 796 711 631 565 361 302 225 140 204 179 186 197
1028 1396 1482 1625 1702 1734 1764 1845 1988 2138 2134 2076 2172 2291 2266 2304 2388 2372 2409 2259 2114 2102 2032 2001 1911 1793 1769 1770 1724 1641 1542 1632 2048 1736 1733 1755 1794 1280 1104 1280 1318 1254 1470 1626 1632 1660 1707 1748 1717 1490 1078 941 706 529 402 50 0 345 412 412 478 539 620 538 508 508 473 610 412 629 987 922 934 802 760 691 557 410 342 271 210 186 170 145 180
1035 1494 1565 1614 1615 1659 1717 1863 1974 2066 2035 2099 2190 2230 2162 2175 2250 2244 2264 2165 2002 2008 1967 1943 1753 1583 1604 1648 1553 1439 1379 1609 1773 1646 1661 1589 1607 1378 1240 1096 1282 1307 1206 1438 1387 1510 1550 1526 1488 1323 1165 877 691 674 465 106 0 112 396 417 432 566 613 633 526 484 468 479 437 677 1062 974 1050 820 754 674 559 463 406 279 117 130 116 132 172
1200 1436 1502 1546 1528 1626 1701 1831 1985 2000 1964 2010 2093 2155 2124 2080 2147 2176 2150 2013 1847 1769 1765 1752 1670 1443 1443 1462 1479 1359 1355 1541 1698 1600 1647 1511 1554 1347 1254 1199 1141 1320 1334 1438 1373 1354 1458 1503 1384 1328 1112 837 627 571 382 12 0 16 263 382 382 498 604 657 597 496 459 466 431 690 1085 1150 1118 874 746 714 614 511 418 258 199 161 111 118 163
1180 1274 1394 1461 1497 1612 1690 1784 1955 1984 1978 1956 2002 1836 1996 1979 2020 2050 2010 1873 1725 1619 1646 1722 1556 1361 1337 1352 1325 1337 1407 1611 1595 1583 1625 1463 1512 1397 1295 1168 1172 1317 1316 1450 1285 1271 1233 1323 1230 1116 929 761 618 490 322 136 279 276 259 314 376 392 590 666 623 486 461 453 438 736 1201 1313 1354 938 750 684 599 560 434 292 196 169 109 87 220
1266 1219 1306 1412 1517 1475 1431 1678 2030 1901 1850 1777 1835 1825 1882 1782 1810 1977 1874 1777 1656 1643 1654 1673 1531 1409 1337 1302 1251 1290 1340 1429 1447 1419 1444 1462 1477 1477 1409 1290 1168 1338 1397 1496 1330 1346 1238 1300 1233 1042 942 757 644 558 373 306 177 0 0 100 340 319 410 699 736 572 484 435 389 764 1369 1482 1415 1154 779 664 611 529 341 266 202 197 125 87 100
1227 1306 1255 1243 1137 1151 1396 1710 1734 1766 1657 1620 1678 1680 1661 1562 1761 1847 1766 1787 1608 1634 1672 1608 1561 1487 1408 1367 1326 1222 1232 1353 1355 1259 1290 1398 1436 1458 1300 1274 1338 1313 1360 1501 1356 1369 1201 1165 1142 1034 805 705 607 372 98 31 0 0 0 3 279 281 229 441 699 724 582 451 450 611 1449 1502 1409 1280 874 720 588 463 343 242 204 207 146 106 75
1276 1396 1145 883 973 1117 1653 1836 1797 1664 1595 1572 1626 1557 1472 1448 1781 1874 1741 1692 1643 1660 1608 1577 1590 1639 1616 1580 1454 1384 1270 1265 1339 1279 1200 1300 1358 1085 1031 1153 1231 1303 1271 1249 1164 1259 1111 1079 1050 979 883 810 578 364 6 0 0 0 0 237 5 148 0 31 475 671 680 564 536 550 1534 1538 1274 1052 1153 757 614 504 424 315 205 157 143 113 100
1394 1029 1086 1188 1328 1585 1832 1943 1836 1910 1617 1685 1623 1530 1410 1444 1603 1760 1759 1737 1665 1723 1647 1550 1528 1602 1649 1619 1585 1511 1392 1216 1303 1304 1301 1303 1296 1187 1042 1164 1212 1196 1305 1253 1120 1167 1108 968 998 976 940 746 374 391 0 0 0 0 20 258 186 0 5 11 396 667 668 614 618 623 1207 1652 1269 1126 1112 949 811 610 463 362 290 213 152 139 145
977 1026 1380 1589 1971 1995 2002 2064 2039 2035 1771 1737 1804 1641 1665 1695 1805 1883 1832 1760 1726 1710 1672 1590 1466 1414 1395 1515 1531 1489 1352 1199 1255 1310 1346 1315 1323 1273 1233 1211 1158 1086 1169 1108 1125 1146 1058 799 562 516 501 351 396 414 0 0 0 0 0 275 284 9 3 18 275 625 658 633 665 664 869 1269 1422 1289 1244 1027 812 939 557 440 355 269 208 181 133
844 874 1306 1734 2104 2158 2175 2226 2239 2190 1917 1829 1826 1759 1809 2009 2074 2034 1986 1881 1762 1672 1625 1729 1596 1540 1455 1392 1404 1356 1173 1108 1154 1298 1309 1324 1281 1276 1167 1031 916 852 770 706 770 730 717 677 631 492 433 359 452 435 0 0 7 26 42 111 253 104 40 64 432 607 660 608 614 642 680 901 1007 1137 1113 1142 820 755 1049 718 523 386 231 214 145
801 1109 1392 1753 2069 2237 2344 2349 2385 2404 2222 2058 1958 1939 2197 2330 2250 2156 2057 1915 1785 1797 1824 1769 1699 1494 1314 1459 1508 1356 1244 1222 1131 1093 1201 1252 1155 1068 1076 1020 803 926 802 710 659 784 774 696 682 750 759 500 474 449 375 116 11 7 15 17 6 46 49 165 435 545 602 612 584 616 563 644 763 726 807 1156 956 674 624 861 750 561 455 337 195
1473 1588 1736 2080 2318 2426 2492 2479 2518 2565 2512 2416 2375 2451 2493 2463 2309 2164 2075 1935 1922 1917 1886 1794 1727 1776 1614 1532 1488 1309 1265 1206 1204 1077 1116 1050 952 994 917 721 586 693 772 712 667 662 716 728 934 924 788 462 465 444 408 420 317 35 2 0 14 1 50 259 419 502 558 571 541 610 579 590 622 564 553 582 835 917 612 586 985 1050 615 549 313
1757 1807 2038 2285 2444 2504 2588 2632 2677 2727 2701 2630 2636 2623 2542 2404 2252 2143 1964 1891 1875 1813 1781 1756 1738 1619 1524 1268 1286 1197 1224 1017 1018 1048 977 889 934 893 744 514 552 644 681 762 903 979 940 1058 977 906 684 464 481 499 452 416 366 276 2 0 0 0 0 15 345 435 530 534 500 578 642 580 578 557 747 604 601 612 722 660 621 797 963 721 527
1920 2024 2171 2164 2318 2548 2663 2740 2829 2841 2807 2721 2652 2548 2440 2262 2201 2131 2046 1988 1821 1740 1671 1676 1663 1557 1422 1364 1139 969 870 844 845 948 962 882 831 810 632 599 625 599 548 649 868 1076 1048 1006 849 747 484 479 461 470 468 414 355 44 29 0 0 28 36 0 114 397 469 488 520 572 653 674 688 1100 910 771 658 664 641 807 792 734 795 944 844
1634 1630 1894 2007 2200 2518 2726 2820 2869 2912 2799 2634 2530 2377 2338 2226 2166 2120 1967 1800 1680 1534 1540 1398 1328 1372 1295 1201 1010 890 877 911 858 878 910 862 827 829 766 730 712 658 645 717 871 965 714 823 756 673 567 495 474 516 544 452 381 438 430 253 0 3 13 0 11 385 483 528 574 638 681 669 717 770 782 758 707 738 747 676 822 819 876 832 750
1461 1344 1681 2024 2155 2428 2697 2851 2878 2870 2702 2536 2451 2313 2122 2039 2018 1852 1515 1284 1153 1209 1097 1047 1131 1063 947 825 765 770 726 698 624 627 656 664 708 742 747 781 748 661 758 658 817 983 886 761 484 508 610 565 572 622 564 436 370 29 0 258 440 398 347 320 84 385 410 492 543 587 628 704 767 784 713 723 737 773 829 802 690 740 842 856 795
1338 1254 1402 1595 1981 2344 2530 2788 2894 2828 2650 2425 2368 2075 1894 1684 1369 1125 918 856 879 932 876 834 788 739 648 525 431 438 454 496 553 600 636 659 663 664 670 631 612 641 674 573 539 793 864 840 566 675 652 625 571 680 520 397 97 0 0 0 116 395 416 397 374 439 404 10 168 326 367 412 495 562 596 644 716 776 808 838 805 710 648 806 839
1403 1271 1061 1088 1632 2221 2470 2632 2856 2864 2530 2219 2088 1787 1503 1295 1001 841 709 775 816 765 753 709 692 644 481 395 376 378 0 398 495 524 528 556 600 547 571 555 588 592 624 738 665 722 692 578 594 778 790 617 322 426 495 365 362 348 4 99 8 289 611 444 399 372 334 81 271 343 288 346 436 489 479 494 578 683 722 739 803 796 741 690 843
1052 869 724 971 1557 2173 2352 2502 2748 2663 2330 2063 1988 1516 1234 1008 866 750 707 700 691 650 656 667 675 604 488 425 402 343 0 0 19 390 451 477 480 460 493 537 570 607 663 702 767 756 751 593 558 683 682 698 627 526 449 447 510 502 462 323 70 32 560 630 409 419 428 386 283 4 318 250 285 310 426 471 482 550 629 653 686 655 745 722 699
643 554 655 738 1042 1796 2140 2333 2548 2347 2016 1871 1853 1272 1148 898 749 656 629 542 574 552 572 464 292 287 0 96 214 270 422 274 2 4 252 438 498 484 499 531 543 609 640 736 722 742 752 650 658 728 738 695 656 460 586 489 618 574 464 458 449 394 393 377 34 69 64 396 410 379 313 398 282 272 262 253 408 460 639 732 800 752 674 680 648
778 627 723 802 876 1175 1643 2128 2391 1997 1619 1504 1521 1140 862 724 686 610 525 494 428 400 38 0 0 0 0 0 0 0 0 0 171 252 334 442 510 586 575 559 578 541 538 564 669 699 644 681 638 594 590 656 594 576 610 658 601 585 447 394 24 23 270 0 1 7 108 234 253 294 281 288 423 375 180 197 104 141 271 297 490 476 642 669 667
943 782 788 848 867 1147 1448 1909 2200 1601 1171 1285 1208 690 216 542 644 572 504 379 222 34 0 0 0 0 0 0 0 0 0 0 0 104 302 485 686 649 580 489 424 520 576 546 554 611 690 743 774 723 530 633 677 677 545 541 640 621 465 144 144 191 20 122 350 490 380 428 307 151 402 360 245 5 66 91 75 111 145 270 180 168 161 281 307
1132 808 861 949 1034 1284 1590 1850 1932 1286 1082 1174 716 0 0 444 471 352 260 0 0 0 0 0 0 0 0 0 0 0 0 0 0 0 8 395 550 655 432 365 470 594 601 599 647 605 568 568 435 484 648 584 510 518 541 568 575 494 615 450 325 15 34 354 121 260 488 569 474 443 369 296 329 295 11 2 8 106 3 136 185 86 106 141 363
1235 847 1006 1181 1266 1440 1553 1602 1406 863 936 675 156 0 0 0 0 0 0 0 0 0 0 0 0 0 0 0 0 0 0 0 0 208 389 574 514 410 400 478 573 614 525 173 168 82 476 543 529 536 634 415 386 392 426 576 581 590 553 579 478 325 417 351 175 0 283 484 543 599 539 480 379 389 296 126 25 19 2 0 10 203 358 406 449
1197 950 1144 1269 1303 1272 1268 1159 972 946 884 73 0 0 0 0 0 0 0 0 0 0 0 0 0 0 0 0 0 0 0 0 0 238 335 302 251 306 413 469 487 372 291 267 250 44 258 402 512 591 664 606 606 540 445 470 394 367 483 551 500 416 327 419 260 90 0 147 183 66 0 0 134 214 232 230 246 123 52 149 482 751 575 592 459
914 890 1038 1060 1064 1095 1107 1092 988 932 698 328 0 0 0 0 0 0 0 0 0 0 0 0 0 0 0 0 0 0 0 0 0 0 0 0 24 218 363 401 331 242 236 249 232 0 0 289 378 436 490 496 428 422 405 495 463 498 505 500 541 248 350 385 303 271 4 231 38 22 0 0 0 0 0 197 316 403 417 460 560 651 588 549 482
742 825 973 1036 952 950 1178 1086 1003 842 509 0 0 0 0 0 0 0 0 0 0 0 0 0 0 0 0 0 0 0 0 0 0 0 0 0 0 0 0 0 96 114 137 0 0 0 0 0 170 240 270 296 320 354 279 304 358 489 465 427 5 141 70 76 0 0 91 68 2 0 0 0 0 0 0 0 0 125 153 286 291 271 382 537 625
760 831 865 937 725 583 637 906 882 430 150 0 0 0 0 0 0 0 0 0 0 0 0 0 0 0 0 0 0 0 0 0 0 0 0 0 0 0 0 0 0 0 0 0 0 0 0 0 0 0 0 0 0 0 22 90 126 227 231 247 307 123 22 19 3 0 12 30 4 2 0 0 0 0 0 0 0 0 0 0 0 25 393 486 357
Wind_Speed
28 33 31 34 36 40 43 45 46 49 49 49 47 45 41 40 39 38 37 37 38 38 38 38 39 39 39 38 38 37 37 36 36 36 35 34 33 32 31 30 30 29 29 29 27 26 26 25 24 23 21 20 20 21 21 22 22 22 24 24 25 26 26 25 26 25 24 24 23 23 22 21 22 21 20 20 19 19 18 18 17 13 10 13 15
30 30 31 33 38 40 44 47 48 50 50 50 49 46 42 39 38 37 37 36 36 36 36 37 38 37 37 37 38 37 36 36 35 34 33 33 32 31 30 29 29 29 29 28 27 27 25 24 23 21 21 20 21 20 20 22 23 23 23 24 25 25 26 25 25 24 24 23 23 24 23 22 22 21 20 20 20 19 18 nan 18 nan nan 15 16
30 30 30 34 39 41 44 47 47 49 49 49 51 46 42 39 38 38 38 36 35 35 36 36 36 36 37 38 38 37 36 36 35 34 33 32 31 30 29 28 27 27 28 27 26 26 25 24 22 21 20 20 20 20 21 22 23 23 24 24 24 25 26 24 24 23 23 23 23 22 23 23 21 20 20 20 20 19 19 18 nan nan nan nan nan
33 31 32 37 43 42 43 45 46 48 47 45 48 47 44 40 39 38 37 34 33 34 34 35 35 36 37 38 38 38 37 36 36 35 33 32 31 30 29 29 28 28 27 27 26 25 24 24 23 21 20 20 20 20 20 22 23 22 23 23 24 25 24 24 23 23 24 23 22 18 13 14 17 21 21 20 20 20 19 19 19 17 nan nan nan
35 35 36 39 41 42 44 45 43 44 45 42 43 47 45 41 39 38 36 34 32 33 33 34 35 36 37 38 38 38 37 37 35 34 33 31 30 30 29 29 29 28 28 27 26 25 25 23 22 22 20 19 20 20 20 22 21 21 22 23 24 24 23 23 23 24 24 23 20 16 nan 12 12 20 20 21 21 20 19 19 19 18 18 18 16
36 35 37 40 42 45 50 50 47 45 45 43 43 44 43 41 40 38 35 34 33 33 34 35 35 36 37 38 38 38 37 36 35 33 32 30 28 29 29 29 29 28 27 27 26 24 24 23 22 21 20 19 20 21 20 21 20 20 21 23 23 23 22 22 23 23 22 22 19 nan nan 14 12 14 19 19 20 nan 19 nan nan 18 18 nan 16
39 37 38 40 41 47 54 54 52 50 48 44 43 42 39 39 39 39 37 36 33 33 33 34 35 35 36 37 37 37 36 36 35 33 32 30 28 26 28 28 28 28 28 27 26 24 23 22 22 21 20 19 20 21 21 20 20 20 21 23 23 23 21 20 21 21 21 nan nan nan nan 13 13 12 18 18 19 20 21 21 20 19 19 17 17
37 37 38 40 41 47 52 53 52 50 47 43 43 40 37 37 38 39 37 35 33 33 33 33 34 35 36 36 36 36 35 35 35 33 32 31 28 27 26 27 27 27 28 27 26 24 23 23 22 21 20 20 20 21 20 20 19 18 19 21 22 20 19 20 20 20 20 nan nan nan nan 13 12 12 18 18 19 18 20 20 19 nan nan nan nan
39 39 40 42 43 50 49 49 50 49 45 45 43 38 36 36 38 38 36 35 33 32 32 33 33 34 34 34 35 35 34 34 34 33 31 31 29 26 24 24 25 25 27 26 25 24 23 23 23 21 20 20 21 21 20 20 20 18 17 17 15 15 17 17 18 18 17 nan nan nan 17 15 14 14 17 18 18 18 21 19 nan 19 nan nan 18
39 39 40 42 44 49 48 47 47 48 46 44 41 36 36 37 38 36 35 35 34 32 31 31 32 33 33 33 34 34 34 34 34 33 31 31 28 25 24 23 24 26 27 26 25 24 23 23 22 22 21 21 22 21 19 19 19 18 17 16 14 14 15 15 17 17 16 nan nan nan 19 18 16 14 17 17 18 nan nan nan 15 nan nan 20 nan
40 39 40 42 44 47 48 48 46 46 44 44 41 41 42 41 39 36 34 35 34 32 30 30 31 32 32 33 34 35 35 35 34 33 31 30 27 26 26 25 25 25 26 26 25 24 23 23 24 23 23 22 21 20 20 19 18 19 19 16 15 14 13 13 17 16 16 nan 17 17 19 21 16 13 18 19 18 17 17 17 20 21 20 19 nan
42 42 41 42 46 45 48 47 46 44 42 42 43 45 45 43 41 37 35 35 33 31 30 30 29 31 33 34 35 35 35 35 34 32 31 29 28 28 27 25 25 25 25 25 24 24 23 24 23 23 22 21 21 22 21 21 20 21 21 17 17 15 12 12 17 17 17 16 17 18 20 18 15 17 20 19 19 17 16 18 18 19 20 20 19
44 43 43 42 43 47 48 47 47 45 43 42 42 44 44 42 41 39 36 32 31 30 29 29 29 29 31 33 35 35 35 35 33 32 30 28 28 27 26 25 24 24 25 25 25 24 23 24 24 22 22 21 22 23 23 22 21 21 21 17 19 18 15 16 18 19 18 16 17 19 19 17 16 21 20 20 19 18 17 17 20 20 19 nan 19
41 43 43 43 45 52 49 45 44 44 43 43 42 42 44 43 41 39 35 33 30 29 29 29 29 31 32 32 34 35 34 34 33 31 30 28 27 27 26 25 25 25 25 26 25 24 23 23 24 24 24 23 22 23 22 22 21 21 21 20 21 22 22 20 19 20 19 17 18 18 18 17 17 20 20 19 19 19 18 17 17 19 19 19 20
40 42 41 42 45 45 50 44 40 40 42 44 43 44 44 42 39 36 34 33 30 29 29 30 31 31 33 34 34 34 34 34 33 31 30 29 28 27 26 26 25 26 25 25 25 25 24 24 25 26 24 23 23 22 22 22 21 21 20 20 22 23 23 21 20 20 20 18 18 19 18 17 18 20 21 20 19 18 18 18 16 18 19 19 19
38 39 39 40 42 41 40 44 44 41 43 45 44 46 46 42 37 34 34 31 30 29 29 29 30 31 32 32 32 33 33 33 32 31 30 29 28 27 27 26 26 26 25 25 25 25 25 26 26 26 25 24 24 23 22 21 21 20 20 20 22 23 23 22 21 21 21 20 18 18 18 17 19 20 21 21 21 19 18 17 18 17 16 nan nan
35 35 38 39 38 37 37 39 42 45 44 43 44 45 44 41 35 30 29 29 29 29 29 30 31 31 31 31 32 32 33 33 32 31 30 28 28 28 27 27 26 25 25 25 25 25 25 26 26 27 26 25 25 26 25 23 22 21 19 20 22 20 22 22 21 21 22 22 20 18 18 17 18 19 22 21 21 21 19 nan 18 16 nan 17 18
35 35 38 39 38 35 34 34 38 38 36 39 41 41 38 36 31 26 26 27 27 28 29 31 32 31 31 32 32 33 34 33 32 31 29 29 27 27 28 27 26 26 25 25 25 25 25 26 26 27 26 26 27 27 27 26 24 23 21 23 22 21 22 23 22 21 22 22 22 18 17 16 17 20 22 22 21 21 20 19 18 17 17 17 18
34 34 36 38 38 35 32 31 32 32 33 33 35 38 36 32 29 27 27 27 27 29 30 31 32 31 31 32 33 33 33 33 32 31 30 29 28 26 27 27 26 26 25 25 25 25 25 25 26 27 27 26 27 27 27 27 27 26 25 25 23 22 24 23 22 21 21 23 23 20 17 15 19 21 23 24 22 20 20 20 19 18 17 16 17
34 34 35 34 34 34 29 28 29 30 29 29 33 35 34 31 29 26 26 26 27 30 30 31 32 31 31 32 32 31 31 30 32 29 30 29 28 24 26 26 26 25 25 25 24 23 24 24 26 26 26 26 27 27 27 27 28 27 27 28 26 27 26 24 23 22 22 22 23 22 17 16 18 21 23 24 23 22 21 21 nan 19 17 17 17
32 31 29 30 28 27 27 25 26 28 27 26 27 31 31 29 25 24 25 26 29 31 31 31 30 29 29 30 31 30 29 27 28 26 28 26 26 27 26 26 25 24 24 24 23 22 22 24 25 26 26 27 27 27 26 27 29 28 28 30 29 27 25 25 24 23 22 21 22 22 19 18 18 20 22 24 25 24 23 21 20 20 19 18 18
31 31 27 27 26 24 26 25 24 26 25 22 22 25 25 25 22 21 23 26 29 30 29 27 28 27 30 30 29 28 29 28 26 28 25 25 25 26 26 25 24 23 23 22 21 21 21 22 23 25 26 27 28 24 nan 24 27 28 28 29 28 27 26 26 24 23 23 22 22 20 20 20 19 20 22 23 25 25 23 21 21 21 20 20 19
32 30 25 25 23 22 23 23 22 21 21 20 21 22 24 24 24 25 26 28 27 29 27 27 28 28 28 28 28 28 28 28 27 26 25 26 24 25 26 23 22 21 21 20 20 19 20 21 22 23 26 27 25 23 23 nan nan 26 26 26 28 28 27 26 25 24 23 22 23 19 20 22 20 21 22 23 24 25 23 22 23 22 20 20 20
29 25 24 22 21 20 21 21 21 20 19 18 19 21 23 24 25 26 28 29 28 28 27 26 27 27 27 27 28 28 28 26 25 26 26 25 24 25 25 23 16 19 18 19 18 18 18 19 21 24 24 23 23 22 22 nan nan 22 23 24 26 28 27 26 25 24 24 23 23 19 20 22 20 21 23 23 24 24 23 23 24 23 21 20 21
22 22 20 19 17 18 18 18 18 17 19 17 17 19 21 23 25 27 27 27 26 26 26 25 25 27 27 27 27 27 26 26 24 25 26 25 25 24 24 22 18 20 19 19 18 18 20 21 22 22 22 23 23 22 21 21 nan 21 22 21 23 27 26 25 25 25 24 23 25 21 20 22 21 22 23 23 24 23 23 24 24 24 22 21 21
18 19 18 16 14 15 17 16 15 16 17 16 16 17 20 21 24 25 26 26 25 25 25 24 25 26 26 26 27 27 26 26 25 25 25 25 25 24 22 21 19 18 19 19 18 19 19 19 19 20 21 22 23 22 21 nan nan nan 21 20 21 25 27 26 25 24 24 23 24 21 21 22 21 22 23 23 24 24 23 24 24 24 23 21 22
17 15 15 14 15 16 16 14 12 15 16 16 17 17 20 21 22 23 24 23 23 24 24 24 25 25 25 26 27 27 26 25 25 25 24 24 24 23 22 22 19 19 17 18 18 18 18 18 18 18 19 21 21 20 20 18 17 19 20 19 20 24 26 26 25 23 23 23 24 22 23 22 23 23 24 23 24 24 23 24 24 25 24 nan 23
15 15 15 18 20 21 17 12 9 12 16 17 18 19 21 21 20 21 22 22 22 23 23 24 25 24 24 25 25 26 26 25 24 24 24 23 23 23 22 22 19 18 17 18 18 18 18 17 17 17 18 19 19 18 18 18 18 nan nan nan 17 19 25 25 25 24 23 22 23 22 23 24 25 24 26 25 25 25 24 25 25 26 25 nan 24
16 19 21 21 19 14 11 6 6 10 14 17 17 19 20 20 18 20 21 21 22 22 22 23 23 22 22 23 24 25 25 25 24 23 23 23 22 22 22 21 20 18 18 17 18 17 17 16 16 16 17 17 17 17 nan nan nan nan nan nan 17 19 23 26 26 26 24 22 22 22 21 25 27 27 27 27 26 25 25 25 25 26 26 25 nan
18 22 21 13 9 10 11 10 8 8 12 15 16 18 19 19 18 19 20 21 20 21 20 21 21 21 21 21 22 23 24 24 23 22 23 21 20 21 22 19 19 18 18 18 17 17 15 15 15 16 17 17 16 16 nan nan nan nan nan 16 nan 20 nan nan 26 26 25 24 23 24 23 26 29 31 31 30 28 27 26 27 25 26 27 27 nan
23 25 14 11 8 9 12 10 6 8 11 13 15 18 19 19 19 20 19 20 19 20 19 19 19 19 20 21 22 22 23 25 23 22 21 20 19 20 19 19 19 18 18 19 19 17 16 15 15 15 15 15 16 16 nan nan nan nan nan 14 17 nan nan nan 26 26 25 26 29 30 27 23 24 29 33 33 29 27 27 28 27 27 27 27 27
23 17 14 9 10 12 11 7 6 8 11 15 16 19 20 19 19 20 19 20 19 19 19 19 19 19 21 21 21 21 24 25 23 21 21 20 19 19 19 19 19 20 20 19 18 17 16 16 16 16 15 16 16 17 nan nan nan nan nan 17 17 nan nan nan 21 22 24 27 29 30 29 25 20 22 28 31 31 29 27 29 28 27 27 28 26
17 14 12 9 10 13 12 8 7 9 12 14 16 17 17 18 19 18 18 19 19 19 19 19 20 20 20 21 21 23 26 24 22 21 21 21 20 20 20 19 20 20 20 18 17 16 17 18 18 17 17 17 17 17 nan nan nan nan nan 17 17 17 nan nan 19 21 23 25 28 27 27 27 24 21 22 27 30 31 31 29 29 28 27 27 26
14 19 18 15 11 12 12 12 10 9 10 14 14 14 16 18 19 18 19 20 20 20 20 20 21 22 22 23 22 25 25 23 21 21 21 21 19 19 20 22 21 20 18 17 15 15 16 17 16 17 17 18 18 17 20 21 nan nan nan nan nan nan nan 17 18 19 21 22 24 25 26 26 27 26 24 24 26 29 31 33 30 29 27 26 27
16 18 19 15 12 10 11 10 9 11 13 13 13 14 17 19 19 19 19 20 20 21 21 21 21 21 23 22 23 24 23 23 22 20 20 21 20 18 20 22 22 17 16 14 14 15 17 16 17 18 18 19 19 19 21 21 20 nan nan nan nan nan nan 16 18 19 19 20 21 22 24 25 25 25 26 26 27 27 28 31 33 31 29 26 27
16 15 17 15 12 9 9 8 10 13 12 11 13 16 19 20 20 20 19 19 18 19 19 20 20 21 23 23 23 23 23 22 21 20 21 21 19 19 20 20 21 18 14 14 15 16 17 18 17 17 18 18 20 20 20 22 20 20 nan nan nan nan nan nan 18 18 19 19 19 19 21 23 23 24 25 27 27 27 27 28 31 34 33 29 27
16 14 15 13 11 8 9 7 7 10 11 12 14 17 20 21 20 19 19 18 18 18 18 19 20 21 21 22 22 21 21 20 20 19 21 21 20 19 20 20 20 17 14 15 18 18 19 20 18 16 18 18 20 21 21 21 21 nan nan nan nan nan nan nan 19 18 19 19 18 18 18 19 20 21 24 27 28 27 26 26 28 30 34 32 30
12 12 10 11 11 10 10 7 5 8 10 12 14 18 20 21 19 18 18 18 18 18 18 19 20 20 21 21 22 21 20 18 18 17 20 19 19 19 19 19 18 16 17 19 20 23 23 20 17 18 18 20 20 20 19 19 20 21 22 22 nan nan nan nan nan 21 21 21 20 18 17 18 18 19 22 25 29 29 27 24 25 27 32 34 31
13 15 14 10 12 12 9 4 4 5 8 11 15 19 22 21 19 18 18 17 17 17 17 17 17 18 19 20 21 20 19 19 19 18 19 18 18 18 18 18 15 14 22 20 22 23 21 21 18 20 20 19 20 19 19 19 20 nan nan 20 20 20 19 21 nan 24 24 24 24 22 20 18 18 18 19 23 27 29 27 26 27 29 31 33 32
10 9 7 7 12 14 12 9 5 4 6 10 15 19 20 21 20 18 18 16 16 16 15 15 15 16 17 19 20 19 18 19 19 18 18 19 18 17 17 15 13 15 18 19 22 21 22 26 17 15 19 21 21 20 20 21 nan nan nan nan 20 20 21 22 23 23 23 nan 24 24 22 20 19 19 19 21 23 25 27 28 28 28 30 30 32
13 11 11 10 9 13 15 12 7 6 7 10 13 16 19 20 19 18 18 15 15 15 15 13 13 13 15 17 18 19 nan 19 19 18 18 17 17 17 17 15 14 16 17 19 23 22 25 20 17 15 17 20 20 18 18 20 21 19 nan nan nan 21 20 21 23 22 23 nan 22 25 24 23 21 20 20 20 19 20 22 25 26 27 26 29 31
12 12 11 11 11 12 13 13 9 8 7 10 13 16 17 19 19 18 18 16 16 15 16 14 14 14 15 16 17 18 nan nan nan 18 17 18 18 19 18 16 15 16 18 21 21 22 23 19 18 19 18 18 20 19 17 18 19 18 19 18 nan nan 21 21 21 21 21 21 21 nan 24 25 24 21 22 21 19 17 17 19 21 22 23 26 29
15 14 13 13 13 13 12 13 11 10 9 12 14 17 19 20 20 19 20 18 15 15 16 14 14 16 nan nan 16 17 18 17 nan nan 18 17 18 19 19 18 17 17 18 20 23 24 22 20 20 21 19 20 22 19 18 16 19 19 20 22 18 19 18 20 nan nan nan 19 19 22 25 26 23 22 21 22 20 19 17 19 18 17 18 20 23
15 16 15 15 15 14 13 14 13 11 12 12 17 21 24 24 25 24 22 20 18 16 nan nan nan nan nan nan nan nan nan nan 17 18 20 19 19 19 19 18 18 17 19 21 23 24 23 22 22 21 22 21 20 20 21 20 21 23 22 20 nan nan 19 nan nan nan 20 19 19 21 22 22 22 20 19 18 22 20 20 22 23 16 14 17 18
12 14 15 15 14 16 15 16 15 14 13 15 19 22 25 26 24 24 23 22 19 nan nan nan nan nan nan nan nan nan nan nan nan 19 20 21 20 19 19 19 20 21 22 23 24 24 24 24 24 22 22 22 21 22 24 21 21 19 24 23 22 20 nan 19 20 20 19 19 19 20 21 20 21 nan nan nan nan 22 19 21 19 16 15 19 17
9 10 12 13 15 16 17 17 16 16 16 17 20 nan nan 25 23 23 23 nan nan nan nan nan nan nan nan nan nan nan nan nan nan nan nan 21 20 20 20 20 21 21 22 23 25 26 25 24 23 24 24 25 25 24 24 24 24 24 24 21 20 nan nan 20 22 21 19 23 24 22 22 22 21 20 nan nan nan 19 nan 22 19 nan 22 21 19
8 10 11 12 13 15 16 17 17 17 17 17 19 nan nan nan nan nan nan nan nan nan nan nan nan nan nan nan nan nan nan nan nan 21 21 21 22 22 22 22 22 23 23 25 25 nan 25 25 25 24 25 27 27 26 24 25 24 25 25 25 25 24 25 25 21 nan 22 23 25 23 22 22 21 21 20 19 nan nan nan nan nan 23 21 22 23
11 12 12 13 14 16 18 19 19 19 17 nan nan nan nan nan nan nan nan nan nan nan nan nan nan nan nan nan nan nan nan nan nan 23 21 21 23 24 24 24 24 23 23 25 25 nan 26 26 26 26 27 26 26 26 25 25 21 22 23 24 24 24 26 27 24 nan nan 26 27 nan nan nan 27 26 23 20 21 23 nan 24 24 22 20 19 19
12 12 15 20 25 24 21 19 18 17 17 16 nan nan nan nan nan nan nan nan nan nan nan nan nan nan nan nan nan nan nan nan nan nan nan nan nan 24 25 25 25 24 24 25 24 nan nan 26 26 26 26 25 25 25 25 24 23 22 23 23 26 28 27 27 25 25 nan 27 nan nan nan nan nan nan nan 26 25 26 26 25 26 25 23 19 17
17 21 26 28 25 17 11 13 16 17 18 nan nan nan nan nan nan nan nan nan nan nan nan nan nan nan nan nan nan nan nan nan nan nan nan nan nan nan nan nan nan 25 24 nan nan nan nan nan 24 24 24 26 24 25 25 24 24 24 23 25 nan 27 nan nan nan nan nan nan nan nan nan nan nan nan nan nan nan 30 31 29 29 27 25 23 21
22 23 23 22 16 12 12 12 16 19 19 nan nan nan nan nan nan nan nan nan nan nan nan nan nan nan nan nan nan nan nan nan nan nan nan nan nan nan nan nan nan nan nan nan nan nan nan nan nan nan nan nan nan nan nan nan 26 26 25 25 28 28 nan nan nan nan nan nan nan nan nan nan nan nan nan nan nan nan nan nan nan nan 29 28 27
Wind_Direction
296 295 292 298 298 299 300 301 300 300 299 299 299 301 303 304 304 304 302 300 300 300 300 300 300 302 302 301 300 300 301 302 303 303 303 303 303 301 301 300 300 299 300 301 300 300 301 301 301 301 298 295 296 296 295 295 295 292 288 283 280 279 273 269 265 262 263 265 266 264 269 275 271 269 266 263 258 256 251 244 240 234 228 236 240
296 290 291 294 297 298 300 301 302 302 301 301 300 301 302 303 303 304 303 300 299 299 299 300 301 300 300 299 299 300 301 301 302 302 303 302 302 301 301 301 302 301 300 300 300 299 298 296 298 298 297 297 295 293 294 294 291 291 288 284 282 279 275 270 266 263 262 263 262 266 270 273 274 271 266 261 258 257 256 nan 242 nan nan 240 239
281 285 287 291 292 293 295 297 300 302 304 303 301 301 301 300 302 303 303 300 299 299 299 300 300 300 300 299 300 300 300 302 303 303 303 303 301 300 299 298 297 296 296 297 296 296 296 294 294 294 292 292 292 293 294 293 291 288 286 284 282 278 276 273 268 263 261 264 268 269 270 271 272 273 268 260 255 257 257 255 nan nan nan nan nan
288 287 287 292 292 289 291 293 296 301 305 306 302 300 300 299 299 302 301 298 297 298 299 299 300 300 300 300 301 302 303 303 303 303 302 302 300 298 299 297 295 295 295 296 296 295 295 293 291 288 289 290 291 291 291 291 289 287 286 286 283 281 280 274 266 261 258 257 253 250 251 261 269 273 271 266 260 256 256 256 254 248 nan nan nan
289 289 291 293 294 296 297 298 299 300 302 303 302 298 297 296 296 298 298 296 296 297 298 298 299 300 301 302 303 303 303 303 302 302 301 301 299 299 298 297 294 294 295 294 292 291 290 289 289 287 285 285 286 288 289 290 288 286 286 285 283 281 279 275 269 264 259 252 247 244 nan 251 262 270 271 267 260 254 253 251 249 247 245 240 235
282 283 286 289 294 298 301 302 300 299 300 300 299 295 292 292 293 294 294 294 295 295 296 298 299 301 302 302 302 303 302 302 301 300 298 298 299 300 298 296 296 294 293 291 289 288 287 286 284 284 282 281 284 286 287 287 286 286 285 285 284 280 278 277 274 267 256 248 242 nan nan 258 258 267 271 270 261 nan 252 nan nan 244 241 nan 236
281 284 286 290 293 298 302 304 301 298 299 299 295 291 287 288 289 291 292 293 292 293 293 296 297 299 300 300 301 301 301 300 299 298 298 296 296 294 295 295 295 293 293 291 289 287 285 284 282 282 280 281 284 283 283 284 283 284 285 286 285 279 277 276 272 265 254 nan nan nan nan 241 251 261 274 267 262 258 255 248 246 245 242 240 238
278 281 283 286 290 297 300 302 305 302 298 295 291 288 283 284 286 286 287 288 288 289 291 293 295 296 297 297 299 299 299 299 299 299 297 296 295 295 296 296 294 293 291 290 288 286 284 283 281 279 280 278 281 280 283 283 282 281 284 290 289 272 273 278 273 268 257 nan nan nan nan 240 248 261 270 270 266 256 254 252 246 nan nan nan nan
282 283 285 288 291 297 297 297 301 303 299 292 284 280 278 282 283 281 282 283 284 285 288 290 293 294 295 295 296 298 298 299 298 298 297 296 295 297 296 293 292 291 288 286 284 283 281 282 281 278 279 276 275 276 275 276 276 279 275 276 275 273 274 274 272 268 258 nan nan nan 245 243 245 251 267 269 266 260 253 249 nan 246 nan nan 242
279 279 284 287 292 296 297 297 298 299 297 290 278 275 280 284 281 277 279 280 281 281 284 287 290 292 294 295 295 296 297 298 298 297 296 296 296 294 289 285 286 288 287 285 283 279 278 277 278 277 272 269 266 265 269 268 268 272 274 273 276 273 270 270 268 267 261 nan nan nan 250 253 248 247 262 266 267 nan nan nan 257 nan nan 246 nan
275 277 280 283 290 294 299 300 297 294 292 289 281 282 286 285 281 275 275 277 277 277 280 284 287 289 291 293 294 296 297 297 296 296 296 294 293 292 290 287 286 286 286 285 282 279 275 270 272 270 269 267 265 262 261 258 257 261 261 256 253 251 255 263 271 268 267 nan 254 242 253 261 259 260 275 276 273 264 257 258 256 254 252 250 nan
276 277 280 286 291 293 298 299 297 291 285 284 281 282 282 279 278 275 273 273 273 273 275 279 283 288 290 292 293 295 296 295 294 294 294 293 291 289 289 287 287 288 287 284 281 277 272 268 265 265 263 263 263 261 260 257 254 253 255 250 244 242 243 264 272 272 272 265 257 253 253 258 264 268 273 272 270 269 264 253 254 255 252 251 248
280 280 283 286 285 290 294 295 297 292 283 281 279 278 274 272 273 270 268 266 267 268 273 277 280 283 288 290 292 292 292 292 292 292 291 289 289 287 286 288 289 287 285 282 278 275 272 268 266 264 263 262 261 259 256 255 255 256 259 255 250 252 257 271 270 274 272 265 259 258 255 252 260 274 277 275 277 273 265 261 252 251 254 nan 249
282 284 286 287 287 291 291 291 292 289 284 280 278 274 269 266 265 263 263 263 263 266 269 275 277 283 285 288 289 289 290 290 290 291 290 289 289 287 287 287 288 288 286 283 278 274 270 266 262 259 255 255 256 256 256 256 255 256 257 255 253 259 266 266 270 271 272 266 264 262 257 258 264 274 276 276 276 275 273 266 260 255 253 252 250
286 287 288 291 295 293 292 288 285 283 281 278 274 270 265 261 257 256 257 260 261 265 270 277 281 284 286 286 287 288 289 290 290 291 291 290 290 288 286 285 286 285 283 281 278 273 269 265 260 258 254 250 249 250 253 254 254 254 254 254 255 262 267 264 266 270 270 267 265 266 263 266 276 279 279 279 276 274 272 268 265 259 252 251 250
286 286 288 295 302 297 289 289 286 285 285 281 276 269 261 257 254 253 255 258 263 266 272 275 277 279 281 283 285 287 288 288 289 289 290 291 291 290 288 286 286 285 284 281 276 272 268 264 261 258 255 249 245 246 246 249 251 253 251 251 255 266 269 266 267 268 270 269 266 266 266 266 271 278 281 283 283 280 278 276 268 261 260 nan nan
285 286 288 293 298 296 291 285 286 288 281 277 273 266 258 252 247 249 256 265 269 270 272 275 276 278 280 282 282 283 285 286 286 288 290 293 293 292 289 286 286 285 281 279 276 273 268 264 261 259 255 252 248 245 245 243 241 242 244 246 253 265 273 268 265 267 269 271 268 266 268 266 278 277 279 276 278 279 280 nan 273 272 nan 260 254
290 293 294 297 299 297 293 289 287 286 283 282 279 270 257 250 246 247 260 266 267 269 271 272 274 278 280 280 280 282 283 284 286 288 292 293 291 291 289 287 285 283 280 277 274 271 267 264 261 259 257 254 251 246 243 240 238 237 236 240 251 270 274 266 261 261 266 269 268 267 264 267 279 281 283 282 280 282 281 279 277 274 266 262 258
294 294 296 298 299 298 297 295 288 285 281 276 274 264 256 252 250 254 258 261 265 269 270 273 276 275 276 278 279 279 280 283 286 289 290 290 291 287 288 288 286 283 279 276 272 269 266 263 262 258 256 253 252 249 245 240 236 233 232 237 252 269 274 259 255 257 260 264 267 262 260 263 276 284 285 283 282 281 279 282 281 276 271 267 262
296 294 294 293 296 299 298 292 285 285 285 283 279 271 265 263 257 261 263 268 271 270 271 272 275 275 276 275 275 274 277 281 287 287 290 291 287 283 289 287 285 281 277 274 271 268 266 264 261 258 256 253 251 248 244 240 236 232 230 235 251 263 257 257 255 251 254 261 263 263 261 262 275 282 284 285 283 279 278 281 nan 278 275 271 266
297 294 291 289 287 288 287 281 278 282 285 288 280 271 271 273 269 275 277 278 273 272 271 271 270 270 269 267 265 268 272 276 279 283 290 285 288 289 290 289 287 283 278 273 270 268 267 264 262 259 257 254 251 247 244 242 240 234 227 233 242 248 256 256 255 252 251 254 259 265 265 267 274 277 280 281 281 277 274 276 279 281 280 276 269
300 301 294 286 287 288 287 284 283 284 284 285 281 276 277 282 269 267 265 269 269 267 263 259 263 258 266 265 268 271 274 278 281 288 284 286 287 291 290 290 288 283 278 274 271 267 265 263 261 260 257 255 254 251 nan 241 241 238 229 229 234 244 252 256 257 254 251 250 255 261 264 271 273 272 275 278 279 280 281 279 277 278 280 278 271
305 306 301 295 291 289 288 289 289 291 291 287 282 278 278 271 265 261 259 263 261 258 253 255 256 261 264 269 271 274 278 281 282 286 288 286 286 288 286 282 281 281 278 274 269 265 262 260 259 258 255 254 252 253 252 nan nan 237 230 225 231 235 247 253 255 255 252 248 250 257 261 268 269 271 272 274 277 279 281 280 277 277 277 275 271
310 313 310 301 297 291 289 290 291 296 298 290 281 276 271 263 259 257 254 250 247 250 254 258 261 265 268 272 275 278 279 283 290 296 292 282 279 285 285 279 277 279 276 268 268 265 264 260 256 252 252 252 253 250 248 nan nan 239 233 226 227 231 243 250 253 254 252 248 247 253 257 263 263 269 270 272 274 276 277 277 276 276 276 275 273
321 318 314 309 300 294 288 289 293 295 297 288 283 272 261 255 252 251 249 247 248 250 254 259 264 268 270 272 276 276 279 279 278 278 279 279 276 272 272 271 269 264 264 256 249 247 247 245 245 247 248 251 250 248 245 242 nan 239 235 227 226 230 238 245 248 250 251 248 246 248 251 256 258 264 268 270 271 270 270 271 272 275 273 273 272
329 326 319 310 296 290 287 285 291 296 289 275 269 270 261 254 252 250 248 247 252 256 260 264 266 270 271 274 276 277 279 278 277 279 277 278 276 274 273 270 264 263 262 260 253 249 247 245 245 247 246 249 252 250 247 nan nan nan 236 230 224 228 234 240 244 247 250 250 246 249 245 250 254 260 262 266 268 267 266 266 269 270 272 271 271
320 316 306 291 273 263 262 262 265 271 280 270 261 263 258 256 254 253 254 257 260 265 267 268 270 272 274 277 279 280 280 279 279 279 279 279 277 274 274 271 269 267 263 267 259 252 248 247 245 246 248 248 248 247 247 247 243 245 244 235 225 227 232 236 239 244 246 247 244 248 243 245 246 255 257 260 262 264 264 261 261 265 265 nan 270
287 286 281 270 261 253 237 234 241 271 263 270 265 260 260 262 263 267 262 268 267 268 268 270 272 275 277 281 281 284 285 283 282 281 282 278 277 275 272 271 274 266 263 263 262 253 248 246 246 245 245 247 245 245 244 244 243 nan nan nan 236 228 233 234 236 238 240 242 242 245 247 244 244 249 254 254 257 259 259 259 257 259 262 nan 264
284 279 275 272 278 275 262 259 286 288 263 261 264 258 265 266 264 264 266 271 264 267 270 272 276 279 281 284 285 285 282 281 281 281 278 276 272 270 266 262 263 266 265 259 256 253 246 244 245 246 249 247 246 243 nan nan nan nan nan nan 237 232 233 236 235 237 239 242 244 246 252 248 246 248 249 250 252 254 254 255 256 256 257 258 nan
285 275 266 255 271 265 269 295 299 279 269 265 258 264 274 279 273 271 270 268 270 270 273 278 283 286 286 284 282 282 282 281 277 275 276 272 269 264 263 263 262 259 256 254 246 247 246 240 239 241 243 243 243 246 nan nan nan nan nan 254 nan 236 nan nan 236 236 237 240 241 244 251 251 247 247 244 246 248 249 253 256 254 257 257 256 nan
269 253 269 268 262 262 280 304 289 260 256 258 258 270 276 280 275 267 271 270 274 277 279 282 285 285 282 279 277 278 277 274 273 271 268 267 264 263 262 257 255 253 250 247 241 238 237 239 237 238 237 240 242 247 nan nan nan nan nan 256 252 nan nan nan 234 235 238 238 237 241 245 259 257 249 244 244 245 247 251 254 256 255 257 258 257
272 239 219 234 251 265 278 295 290 264 257 254 265 274 279 276 270 266 271 273 279 279 281 281 284 280 277 280 281 280 273 270 270 272 270 267 264 261 259 258 253 247 243 241 239 236 239 241 242 243 245 247 241 244 nan nan nan nan nan 252 252 nan nan nan 243 243 245 247 247 247 250 256 264 255 245 246 247 245 249 253 256 256 256 259 257
316 287 273 263 244 255 271 273 265 248 255 264 267 270 270 268 268 271 274 278 280 279 281 282 280 283 281 278 281 279 273 279 281 280 276 268 262 261 259 261 259 251 245 245 242 238 239 239 239 243 243 245 248 247 nan nan nan nan nan 247 251 252 nan nan 254 253 254 255 256 257 258 257 256 254 250 247 247 245 240 246 255 257 258 260 259
277 264 270 267 234 231 257 258 260 255 254 256 260 266 268 268 270 274 276 275 276 279 280 277 278 275 276 279 277 274 274 276 279 273 274 269 261 254 254 248 245 248 251 253 252 247 245 243 243 245 247 250 251 248 253 251 nan nan nan nan nan nan nan 250 251 254 256 257 259 260 261 259 257 255 251 250 250 246 243 240 246 254 256 259 258
267 265 267 260 237 225 245 253 254 243 246 253 261 265 267 270 271 272 273 275 276 275 275 277 278 282 278 275 273 274 280 280 276 278 278 276 270 263 253 248 251 253 252 252 254 251 250 249 251 250 248 251 255 254 259 258 252 nan nan nan nan nan nan 249 247 248 250 252 256 259 261 261 258 256 254 253 248 250 248 245 241 243 252 254 253
296 288 273 256 231 214 220 229 233 243 246 254 259 268 269 270 272 275 274 275 278 276 276 278 280 278 279 279 273 273 277 277 279 282 274 269 269 265 263 261 257 253 250 250 250 251 251 250 254 260 257 256 260 254 254 258 252 251 nan nan nan nan nan nan 248 247 249 253 254 258 261 262 260 258 256 256 255 252 253 252 249 243 248 251 247
326 312 286 263 239 217 204 203 229 245 249 253 263 267 268 269 268 270 275 278 279 280 279 281 279 279 278 278 279 283 280 279 277 275 273 272 274 270 264 264 259 257 256 254 247 245 254 252 249 257 263 265 263 261 256 256 255 nan nan nan nan nan nan nan 243 248 249 257 259 259 262 262 263 262 259 258 256 255 254 257 258 255 248 248 249
299 309 297 288 272 238 195 182 219 245 260 269 271 269 266 266 267 272 277 278 280 281 282 281 280 280 279 277 277 279 283 283 277 272 271 274 271 269 268 265 263 261 256 247 244 243 248 250 250 245 255 263 263 265 262 260 258 252 245 244 nan nan nan nan nan 247 250 253 254 258 262 264 265 264 262 260 257 255 254 257 263 263 259 253 251
320 327 334 321 267 242 215 223 268 273 269 271 272 269 268 268 268 270 269 271 271 272 274 275 279 279 279 282 282 279 280 280 279 277 276 275 268 269 272 273 267 259 252 254 247 251 253 250 248 249 247 253 266 266 268 266 260 nan nan 239 240 242 243 247 nan 247 248 252 254 256 261 265 264 265 266 263 259 255 254 255 258 261 261 262 254
299 297 287 261 251 244 258 279 289 303 274 267 268 266 265 266 269 267 263 264 265 271 270 277 281 281 280 280 278 275 274 277 278 277 274 272 273 275 277 273 262 256 256 253 249 250 247 244 252 254 252 249 250 259 263 264 nan nan nan nan 240 239 240 245 248 249 251 nan 257 261 259 264 267 263 263 265 265 257 250 250 254 260 261 261 261
282 293 296 294 272 271 283 300 321 318 289 271 263 267 267 264 260 263 271 267 272 274 276 281 283 281 279 277 279 278 nan 277 279 278 278 277 273 272 270 266 255 245 249 250 251 253 249 256 260 247 244 249 254 259 258 261 267 256 nan nan nan 241 240 244 250 250 254 nan 256 258 259 260 258 258 256 259 261 257 248 247 251 257 259 258 257
280 285 297 298 286 283 299 302 310 306 283 271 268 262 265 276 279 280 278 275 276 279 282 283 287 282 279 282 283 281 nan nan nan 275 271 269 270 268 269 265 258 247 242 243 250 259 265 266 265 258 246 253 259 266 263 259 257 268 265 254 nan nan 247 246 248 250 252 255 258 nan 258 256 256 250 253 259 257 259 257 252 251 255 258 259 257
278 285 281 279 279 289 294 300 299 292 275 269 267 267 263 266 272 279 281 279 277 281 283 280 285 284 nan nan 282 284 284 280 nan nan 272 268 266 267 266 264 260 257 252 251 251 258 266 265 260 261 253 247 257 261 262 263 267 264 259 261 256 254 251 252 nan nan nan 252 259 262 253 251 252 253 245 253 253 247 250 255 252 250 259 264 263
271 274 280 289 288 290 291 291 289 281 277 265 260 258 263 266 268 276 275 282 287 282 nan nan nan nan nan nan nan nan nan nan 281 278 271 269 268 267 269 269 266 261 256 255 255 257 258 259 259 259 265 258 260 264 260 262 266 274 264 262 nan nan 253 nan nan nan 254 251 251 255 255 254 254 256 256 251 255 254 249 248 246 245 269 273 269
282 285 285 287 284 288 290 290 287 285 275 269 268 269 268 264 268 270 275 276 271 nan nan nan nan nan nan nan nan nan nan nan nan 273 272 269 266 267 266 265 264 259 254 252 253 255 253 253 260 259 260 266 264 265 264 264 267 265 271 267 259 257 nan 261 256 258 253 261 253 249 251 251 254 nan nan nan nan 255 258 261 260 253 250 258 258
290 282 280 279 278 281 281 276 270 270 273 272 276 nan nan 280 279 282 282 nan nan nan nan nan nan nan nan nan nan nan nan nan nan nan nan 271 266 260 262 262 259 257 256 255 255 255 256 257 262 265 264 264 265 267 267 266 264 258 262 265 264 nan nan 267 264 267 262 256 251 246 248 247 248 252 nan nan nan 250 nan 258 253 nan 258 261 260
268 260 264 267 272 277 275 272 269 263 264 271 275 nan nan nan nan nan nan nan nan nan nan nan nan nan nan nan nan nan nan nan nan 273 272 267 262 258 258 257 256 256 257 258 257 nan 260 259 261 265 263 266 266 265 268 265 261 262 263 260 258 259 261 265 264 nan 263 257 250 249 246 246 248 245 244 246 nan nan nan nan nan 246 249 258 260
260 253 254 253 260 256 251 250 252 260 262 nan nan nan nan nan nan nan nan nan nan nan nan nan nan nan nan nan nan nan nan nan nan 269 265 265 265 261 257 255 253 251 251 252 255 nan 259 257 257 258 260 262 267 268 268 268 266 263 262 262 262 261 258 258 259 nan nan 264 255 nan nan nan 248 249 247 246 244 244 nan 246 248 251 259 268 265
253 256 246 237 233 228 232 240 248 261 271 276 nan nan nan nan nan nan nan nan nan nan nan nan nan nan nan nan nan nan nan nan nan nan nan nan nan 258 254 251 250 248 249 250 249 nan nan 259 259 259 262 261 263 268 268 266 268 266 266 265 262 257 254 255 256 257 nan 262 nan nan nan nan nan nan nan 243 245 246 244 242 244 248 252 259 259
238 239 242 247 243 233 240 266 270 275 278 nan nan nan nan nan nan nan nan nan nan nan nan nan nan nan nan nan nan nan nan nan nan nan nan nan nan nan nan nan nan 246 245 nan nan nan nan nan 256 261 263 263 258 262 265 267 265 264 263 265 nan 262 nan nan nan nan nan nan nan nan nan nan nan nan nan nan nan 245 243 242 245 247 248 249 251
248 256 261 276 303 309 281 285 279 274 273 nan nan nan nan nan nan nan nan nan nan nan nan nan nan nan nan nan nan nan nan nan nan nan nan nan nan nan nan nan nan nan nan nan nan nan nan nan nan nan nan nan nan nan nan nan 264 263 260 261 268 275 nan nan nan nan nan nan nan nan nan nan nan nan nan nan nan nan nan nan nan nan 249 248 249